TBPB Airport Information

Runway Information
Runway 09 Length 11000 ft width 150 ft
Elevation 169 ft Threshold 0 ft Heading 76
Runway 27 Length 11000 ft Width 150 ft
Elevation 160 ft Threshold 0 ft Heading 256
Airport Frequencies
Type APP Name ADAMS APP Frequency 129.35 MHZ
Type ARR Name ADAMS ARR Frequency 128.85 MHZ
Type ATIS Name ATIS Frequency 132.725 MHZ
Type DEP Name ADAMS DEP Frequency 128.85 MHZ
Type GND Name ADAMS GND Frequency 121.9 MHZ
Type TWR Name ADAMS TWR Frequency 118.7 MHZ
Airport Navaids
Type VOR-DME Name Adams Frequency 112700 KHZ
Type NDB Name Adams Frequency 345 KHZ
Airport Weather Information & NOTAM
ADDS - METARS form results

(1137 UTC 21 April 2018)
 
METAR text: TBPB 211100Z 10017KT 9999 SCT018 25/23 Q1015 NOSIG
Conditions at: TBPB (GRANTLEY ADAMS , BB) observed 1100 UTC 21 April 2018
Temperature: 25.0°C (77°F)
Dewpoint: 23.0°C (73°F) [RH = 89%]
Pressure (altimeter): 29.97 inches Hg (1015.0 mb)
Winds: from the E (100 degrees) at 20 MPH (17 knots; 8.8 m/s)
Visibility: 6 or more miles (10+ km)
Ceiling: at least 12,000 feet AGL
Clouds: scattered clouds at 1800 feet AGL
Weather: no significant weather observed at this time